Regional Weather Roundup
Issued by NWS Jackson, KY

Home | Current Version | Previous Version | Graphics & Text | Print | Product List | Glossary On
Versions: 1 2 3 4 5 6 7 8 9 10 11 12 13 14 15 16 17 18 19 20 21 22 23 24 25 26 27 28 29 30 31 32 33 34 35 36 37 38 39 40 41 42 43 44 45 46 47 48 49 50
000
ASUS43 KJKL 251210
RWRJKL

EAST KENTUCKY HOURLY WEATHER ROUNDUP
NATIONAL WEATHER SERVICE JACKSON KY
800 AM EDT THU AUG 25 2016

NOTE: "FAIR" INDICATES FEW OR NO CLOUDS BELOW 12,000 FEET WITH
NO SIGNIFICANT WEATHER AND/OR OBSTRUCTIONS TO VISIBILITY.

* THESE REPORTS ARE NOT UNDER NWS QUALITY CONTROL AND MAY NOT
  REPORT WEATHER SUCH AS PRECIPITATION AND FOG.

KYZ079-080-083-085-087-088-110-112-115-119-120-251300
...EASTERN KENTUCKY...

CITY           SKY/WX    TMP DP  RH WIND       PRES   REMARKS
JACKSON        SUNNY     72  69  90 CALM      30.18S
6HR MIN TEMP:  72; 6HR MAX TEMP:  75;

LONDON         SUNNY     71  68  90 CALM      30.19S FOG
6HR MIN TEMP:  69; 6HR MAX TEMP:  73;

SOMERSET*      PTSUNNY   72  72 100 CALM      30.19R
MONTICELLO*    CLEAR    N/A N/A N/A W9        30.20R
WILLIAMSBURG*  SUNNY     72  72 100 SE3       30.20S
MIDDLESBORO*   CLOUDY    67  67 100 CALM      30.22S FOG
6HR MIN TEMP:  66; 6HR MAX TEMP:  70;

HARLAN APT*    CLOUDY    68  66  94 CALM      30.23R
PIKE CO APT*   PTSUNNY   72  71  96 S3        30.19S
BIG SANDY APT* CLOUDY    74  71  91 CALM      30.18R
6HR MIN TEMP:  73; 6HR MAX TEMP:  76;

MOREHEAD APT*  MOSUNNY   75  70  83 SW8       30.16S
ASHLAND*       CLOUDY    73  72  94 CALM      30.11R
$$

KYZ035-036-041-042-044-050-067-078-099-251300
...CENTRAL KENTUCKY...

CITY           SKY/WX    TMP DP  RH WIND       PRES   REMARKS
MT STERLING*   SUNNY     72  72 100 SW5       30.17R
FLEMING/MASON* SUNNY     73  71  92 SW7       30.14R
DANVILLE*      SUNNY     72  70  94 SW6       30.17S
LEXINGTON      SUNNY     74  70  87 S7        30.14S
6HR MIN TEMP:  73; 6HR MAX TEMP:  76;

FRANKFORT      SUNNY     76  71  85 SW6       30.12S
6HR MIN TEMP:  74; 6HR MAX TEMP:  77;

LOUISVILLE     PTCLDY    79  73  82 S7        30.10R
6HR MIN TEMP:  78; 6HR MAX TEMP:  82;

LEBANON*         N/A     75  72  88 S8        30.15S
GLASGOW*       PTCLDY    73  73 100 CALM      30.16R
BOWLING GREEN  PTCLDY    76  72  87 SW3       30.15R
6HR MIN TEMP:  74; 6HR MAX TEMP:  79;

$$

KYZ091>093-OHZ055-061-077-WVZ005-015-034-035-042-251300
...SOUTHERN OHIO/WEST VIRGINIA...

CITY           SKY/WX    TMP DP  RH WIND       PRES   REMARKS
COLUMBUS       PTSUNNY   73  72  96 S5        30.07S
DAYTON         CLOUDY    76  74  93 SW7       30.10R
WILMINGTON     CLOUDY    74  73  97 SW6       30.11R
CHARLESTON     CLOUDY    76  69  79 SW7       30.13S
PINEVILLE*     CLOUDY    67  64  90 MISG      30.26S FOG
BLUEFIELD      CLOUDY    68  64  87 W6        30.27F
LOGAN CO APT*  CLOUDY    72  70  94 CALM      30.18S
$$

VAZ002-007-008-TNZ017-027-036-066-071-251300
...SOUTHWEST VIRGINIA/EAST TENNESSEE...

CITY           SKY/WX    TMP DP  RH WIND       PRES   REMARKS
WISE*          PTSUNNY   70  68  94 SW6       30.29R
JONESVILLE*    PTSUNNY   68  66  94 CALM      30.25S
ABINGDON*      PTSUNNY   69  69 100 CALM      30.25F
BRISTOL        MOSUNNY   69  67  93 CALM      30.23F
MORRISTOWN*    MOSUNNY   72  72 100 S5        30.22S
SEVIERVILLE*   SUNNY     72  70  94 CALM      30.21S
KNOXVILLE      MOSUNNY   73  70  90 SW3       30.20S
OAK RIDGE      MOSUNNY   75  71  87 CALM      30.22R
CROSSVILLE     PTCLDY    70  68  93 CALM      30.25R
NASHVILLE      PTCLDY    74  71  91 CALM      30.16R
$$

...KEY TO REMARKS...
VSB - VISIBILITY IN MILES
WCI - WIND CHILL INDEX
HX  - HEAT INDEX

$$



USA.gov is the U.S. government's official web portal to all federal, state and local government web resources and services.